Location: Ar Ranvel
(48.3000°N, 4.8833°W)
Time: 00:43:26
(UTC+00:00)

FALCON 9 DEB - Pass Details

Date: 29 October 2021
Orbit: 417 x 427 km, 53.0° (Epoch: 28 November)

Event Time Altitude Azimuth Distance (km) Brightness Sun altitude
Rises 19:17:07 0° 255° (WSW) 2,394 8.1 -22.4°
Reaches altitude 10° 19:19:15 10° 259° (W) 1,529 6.9 -22.8°
Enters shadow 19:22:03 49° 295° (WNW) 565 4.0 -23.3°
